Year,Month,Day,Hour,Minute,Value (Times are PST for windspeed in km/hr)
2007,11,12,00,00,8.90
2007,11,12,00,01,5.80
2007,11,12,00,02,9.60
2007,11,12,00,03,10.50
2007,11,12,00,04,9.70
2007,11,12,00,05,12.80
2007,11,12,00,06,8.10
2007,11,12,00,07,9.60
2007,11,12,00,08,10.00
2007,11,12,00,09,7.10
2007,11,12,00,10,6.60
2007,11,12,00,11,7.70
2007,11,12,00,12,11.30
2007,11,12,00,13,13.90
2007,11,12,00,14,9.70
2007,11,12,00,15,15.40
2007,11,12,00,16,10.40
2007,11,12,00,17,7.90
2007,11,12,00,18,11.70
2007,11,12,00,19,10.70
2007,11,12,00,20,12.70
2007,11,12,00,21,12.90
2007,11,12,00,22,16.30
2007,11,12,00,23,10.80
2007,11,12,00,24,8.20
2007,11,12,00,25,12.90
2007,11,12,00,26,4.70
2007,11,12,00,27,6.60
2007,11,12,00,28,10.00
2007,11,12,00,29,9.70
2007,11,12,00,30,12.60
2007,11,12,00,31,7.70
2007,11,12,00,32,7.70
2007,11,12,00,33,8.90
2007,11,12,00,34,7.20
2007,11,12,00,35,7.40
2007,11,12,00,36,9.30
2007,11,12,00,37,12.90
2007,11,12,00,38,11.40
2007,11,12,00,39,18.90
2007,11,12,00,40,12.40
2007,11,12,00,41,11.00
2007,11,12,00,42,8.70
2007,11,12,00,43,9.10
2007,11,12,00,44,11.30
2007,11,12,00,45,14.70
2007,11,12,00,46,12.10
2007,11,12,00,47,14.20
2007,11,12,00,48,12.30
2007,11,12,00,49,14.20
2007,11,12,00,50,11.30
2007,11,12,00,51,12.00
2007,11,12,00,52,14.90
2007,11,12,00,53,11.70
2007,11,12,00,54,14.70
2007,11,12,00,55,13.30
2007,11,12,00,56,9.50
2007,11,12,00,57,10.30
2007,11,12,00,58,10.20
2007,11,12,00,59,12.60
2007,11,12,01,00,7.70
2007,11,12,01,01,8.60
2007,11,12,01,02,9.70
2007,11,12,01,03,8.10
2007,11,12,01,04,12.90
2007,11,12,01,05,10.30
2007,11,12,01,06,7.90
2007,11,12,01,07,6.70
2007,11,12,01,08,4.40
2007,11,12,01,09,5.70
2007,11,12,01,10,6.70
2007,11,12,01,11,9.10
2007,11,12,01,12,10.60
2007,11,12,01,13,10.00
2007,11,12,01,14,9.20
2007,11,12,01,15,9.70
2007,11,12,01,16,7.50
2007,11,12,01,17,9.20
2007,11,12,01,18,7.30
2007,11,12,01,19,6.30
2007,11,12,01,20,5.50
2007,11,12,01,21,3.90
2007,11,12,01,22,0.70
2007,11,12,01,23,4.20
2007,11,12,01,24,5.90
2007,11,12,01,25,3.30
2007,11,12,01,26,2.00
2007,11,12,01,27,2.70
2007,11,12,01,28,3.80
2007,11,12,01,29,3.80
2007,11,12,01,30,7.40
2007,11,12,01,31,7.00
2007,11,12,01,32,5.50
2007,11,12,01,33,7.20
2007,11,12,01,34,14.80
2007,11,12,01,35,13.20
2007,11,12,01,36,11.70
2007,11,12,01,37,17.20
2007,11,12,01,38,19.40
2007,11,12,01,39,16.70
2007,11,12,01,40,15.80
2007,11,12,01,41,15.60
2007,11,12,01,42,15.60
2007,11,12,01,43,21.40
2007,11,12,01,44,22.50
2007,11,12,01,45,18.90
2007,11,12,01,46,14.60
2007,11,12,01,47,18.90
2007,11,12,01,48,24.00
2007,11,12,01,49,20.20
2007,11,12,01,50,19.80
2007,11,12,01,51,24.40
2007,11,12,01,52,20.20
2007,11,12,01,53,13.70
2007,11,12,01,54,11.20
2007,11,12,01,55,16.70
2007,11,12,01,56,14.80
2007,11,12,01,57,11.70
2007,11,12,01,58,7.90
2007,11,12,01,59,8.10
2007,11,12,02,00,9.60
2007,11,12,02,01,10.80
2007,11,12,02,02,11.30
2007,11,12,02,03,12.20
2007,11,12,02,04,11.40
2007,11,12,02,05,9.50
2007,11,12,02,06,9.50
2007,11,12,02,07,11.00
2007,11,12,02,08,9.70
2007,11,12,02,09,11.80
2007,11,12,02,10,10.60
2007,11,12,02,11,13.20
2007,11,12,02,12,11.60
2007,11,12,02,13,14.40
2007,11,12,02,14,9.60
2007,11,12,02,15,7.30
2007,11,12,02,16,8.80
2007,11,12,02,17,7.70
2007,11,12,02,18,13.40
2007,11,12,02,19,14.70
2007,11,12,02,20,13.60
2007,11,12,02,21,9.10
2007,11,12,02,22,9.70
2007,11,12,02,23,9.10
2007,11,12,02,24,10.90
2007,11,12,02,25,13.50
2007,11,12,02,26,15.00
2007,11,12,02,27,12.60
2007,11,12,02,28,16.60
2007,11,12,02,29,19.60
2007,11,12,02,30,24.80
2007,11,12,02,31,24.60
2007,11,12,02,32,15.70
2007,11,12,02,33,17.60
2007,11,12,02,34,29.10
2007,11,12,02,35,28.20
2007,11,12,02,36,27.20
2007,11,12,02,37,35.90
2007,11,12,02,38,30.10
2007,11,12,02,39,30.50
2007,11,12,02,40,35.50
2007,11,12,02,41,27.20
2007,11,12,02,42,27.60
2007,11,12,02,43,31.80
2007,11,12,02,44,30.60
2007,11,12,02,45,29.70
2007,11,12,02,46,24.70
2007,11,12,02,47,19.00
2007,11,12,02,48,24.50
2007,11,12,02,49,31.90
2007,11,12,02,50,30.20
2007,11,12,02,51,29.70
2007,11,12,02,52,31.80
2007,11,12,02,53,31.00
2007,11,12,02,54,16.80
2007,11,12,02,55,35.60
2007,11,12,02,56,27.20
2007,11,12,02,57,37.30
2007,11,12,02,58,39.30
2007,11,12,02,59,46.30
2007,11,12,03,00,33.20
2007,11,12,03,01,44.00
2007,11,12,03,02,44.00
2007,11,12,03,03,36.70
2007,11,12,03,04,41.90
2007,11,12,03,05,36.90
2007,11,12,03,06,43.00
2007,11,12,03,07,44.60
2007,11,12,03,08,48.50
2007,11,12,03,09,30.10
2007,11,12,03,10,28.80
2007,11,12,03,11,40.20
2007,11,12,03,12,47.20
2007,11,12,03,13,35.20
2007,11,12,03,14,45.90
2007,11,12,03,15,47.40
2007,11,12,03,16,50.30
2007,11,12,03,17,48.60
2007,11,12,03,18,31.20
2007,11,12,03,19,36.60
2007,11,12,03,20,33.90
2007,11,12,03,21,39.70
2007,11,12,03,22,34.00
2007,11,12,03,23,25.50
2007,11,12,03,24,24.90
2007,11,12,03,25,28.10
2007,11,12,03,26,28.20
2007,11,12,03,27,28.60
2007,11,12,03,28,27.80
2007,11,12,03,29,35.10
2007,11,12,03,30,30.50
2007,11,12,03,31,27.20
2007,11,12,03,32,24.70
2007,11,12,03,33,23.10
2007,11,12,03,34,21.70
2007,11,12,03,35,19.70
2007,11,12,03,36,15.20
2007,11,12,03,37,17.40
2007,11,12,03,38,20.80
2007,11,12,03,39,17.10
2007,11,12,03,40,18.00
2007,11,12,03,41,16.70
2007,11,12,03,42,10.30
2007,11,12,03,43,14.00
2007,11,12,03,44,7.60
2007,11,12,03,45,8.70
2007,11,12,03,46,11.00
2007,11,12,03,47,7.90
2007,11,12,03,48,10.80
2007,11,12,03,49,6.50
2007,11,12,03,50,11.90
2007,11,12,03,51,10.20
2007,11,12,03,52,13.70
2007,11,12,03,53,15.60
2007,11,12,03,54,11.90
2007,11,12,03,55,14.10
2007,11,12,03,56,18.00
2007,11,12,03,57,15.30
2007,11,12,03,58,10.30
2007,11,12,03,59,12.70
2007,11,12,04,00,10.50
2007,11,12,04,01,8.60
2007,11,12,04,02,8.00
2007,11,12,04,03,6.30
2007,11,12,04,04,6.10
2007,11,12,04,05,11.30
2007,11,12,04,06,10.70
2007,11,12,04,07,12.60
2007,11,12,04,08,10.00
2007,11,12,04,09,10.70
2007,11,12,04,10,9.50
2007,11,12,04,11,12.00
2007,11,12,04,12,7.20
2007,11,12,04,13,3.10
2007,11,12,04,14,5.10
2007,11,12,04,15,0.60
2007,11,12,04,16,1.40
2007,11,12,04,17,4.70
2007,11,12,04,18,3.70
2007,11,12,04,19,1.40
2007,11,12,04,20,0.10
2007,11,12,04,21,0.30
2007,11,12,04,22,0.00
2007,11,12,04,23,0.30
2007,11,12,04,24,3.60
2007,11,12,04,25,0.00
2007,11,12,04,26,2.00
2007,11,12,04,27,4.10
2007,11,12,04,28,5.20
2007,11,12,04,29,4.90
2007,11,12,04,30,2.40
2007,11,12,04,31,1.60
2007,11,12,04,32,0.90
2007,11,12,04,33,0.00
2007,11,12,04,34,2.00
2007,11,12,04,35,5.00
2007,11,12,04,36,7.10
2007,11,12,04,37,8.90
2007,11,12,04,38,7.10
2007,11,12,04,39,8.10
2007,11,12,04,40,6.30
2007,11,12,04,41,5.70
2007,11,12,04,42,6.30
2007,11,12,04,43,7.50
2007,11,12,04,44,6.40
2007,11,12,04,45,6.40
2007,11,12,04,46,7.90
2007,11,12,04,47,5.80
2007,11,12,04,48,10.30
2007,11,12,04,49,5.80
2007,11,12,04,50,5.50
2007,11,12,04,51,8.00
2007,11,12,04,52,6.60
2007,11,12,04,53,6.30
2007,11,12,04,54,7.90
2007,11,12,04,55,9.00
2007,11,12,04,56,9.00
2007,11,12,04,57,6.30
2007,11,12,04,58,6.50
2007,11,12,04,59,4.00
2007,11,12,05,00,2.30
2007,11,12,05,01,6.00
2007,11,12,05,02,6.00
2007,11,12,05,03,5.00
2007,11,12,05,04,4.80
2007,11,12,05,05,0.10
2007,11,12,05,06,0.00
2007,11,12,05,07,1.60
2007,11,12,05,08,3.00
2007,11,12,05,09,3.10
2007,11,12,05,10,5.50
2007,11,12,05,11,8.00
2007,11,12,05,12,4.80
2007,11,12,05,13,4.80
2007,11,12,05,14,8.50
2007,11,12,05,15,7.90
2007,11,12,05,16,5.90
2007,11,12,05,17,5.80
2007,11,12,05,18,8.60
2007,11,12,05,19,4.30
2007,11,12,05,20,3.70
2007,11,12,05,21,4.20
2007,11,12,05,22,6.60
2007,11,12,05,23,6.30
2007,11,12,05,24,3.00
2007,11,12,05,25,2.60
2007,11,12,05,26,6.60
2007,11,12,05,27,8.20
2007,11,12,05,28,8.60
2007,11,12,05,29,6.20
2007,11,12,05,30,5.80
2007,11,12,05,31,3.80
2007,11,12,05,32,5.40
2007,11,12,05,33,11.90
2007,11,12,05,34,7.50
2007,11,12,05,35,2.50
2007,11,12,05,36,2.70
2007,11,12,05,37,3.00
2007,11,12,05,38,6.00
2007,11,12,05,39,3.10
2007,11,12,05,40,0.70
2007,11,12,05,41,4.30
2007,11,12,05,42,4.60
2007,11,12,05,43,6.40
2007,11,12,05,44,8.60
2007,11,12,05,45,5.50
2007,11,12,05,46,4.30
2007,11,12,05,47,6.60
2007,11,12,05,48,5.30
2007,11,12,05,49,3.60
2007,11,12,05,50,5.00
2007,11,12,05,51,5.60
2007,11,12,05,52,6.10
2007,11,12,05,53,3.80
2007,11,12,05,54,5.20
2007,11,12,05,55,8.80
2007,11,12,05,56,3.80
2007,11,12,05,57,7.50
2007,11,12,05,58,5.60
2007,11,12,05,59,6.90
2007,11,12,06,00,6.70
2007,11,12,06,01,3.80
2007,11,12,06,02,6.40
2007,11,12,06,03,4.70
2007,11,12,06,04,3.90
2007,11,12,06,05,3.80
2007,11,12,06,06,4.10
2007,11,12,06,07,7.40
2007,11,12,06,08,6.00
2007,11,12,06,09,6.40
2007,11,12,06,10,6.50
2007,11,12,06,11,3.90
2007,11,12,06,12,9.00
2007,11,12,06,13,6.00
2007,11,12,06,14,8.30
2007,11,12,06,15,7.00
2007,11,12,06,16,5.30
2007,11,12,06,17,9.30
2007,11,12,06,18,8.40
2007,11,12,06,19,15.40
2007,11,12,06,20,10.70
2007,11,12,06,21,10.60
2007,11,12,06,22,10.90
2007,11,12,06,23,8.60
2007,11,12,06,24,13.90
2007,11,12,06,25,7.40
2007,11,12,06,26,4.60
2007,11,12,06,27,10.80
2007,11,12,06,28,11.00
2007,11,12,06,29,4.40
2007,11,12,06,30,5.50
2007,11,12,06,31,9.60
2007,11,12,06,32,9.40
2007,11,12,06,33,8.90
2007,11,12,06,34,6.70
2007,11,12,06,35,8.30
2007,11,12,06,36,13.10
2007,11,12,06,37,8.30
2007,11,12,06,38,6.80
2007,11,12,06,39,9.20
2007,11,12,06,40,11.80
2007,11,12,06,41,12.60
2007,11,12,06,42,8.70
2007,11,12,06,43,9.60
2007,11,12,06,44,6.50
2007,11,12,06,45,7.40
2007,11,12,06,46,5.50
2007,11,12,06,47,6.10
2007,11,12,06,48,4.10
2007,11,12,06,49,5.90
2007,11,12,06,50,7.50
2007,11,12,06,51,7.00
2007,11,12,06,52,3.50
2007,11,12,06,53,1.40
2007,11,12,06,54,8.20
2007,11,12,06,55,10.40
2007,11,12,06,56,11.50
2007,11,12,06,57,5.00
2007,11,12,06,58,4.00
2007,11,12,06,59,7.70
2007,11,12,07,00,7.40
2007,11,12,07,01,12.70
2007,11,12,07,02,14.70
2007,11,12,07,03,12.50
2007,11,12,07,04,11.70
2007,11,12,07,05,10.70
2007,11,12,07,06,12.00
2007,11,12,07,07,9.70
2007,11,12,07,08,11.50
2007,11,12,07,09,8.80
2007,11,12,07,10,12.20
2007,11,12,07,11,13.10
2007,11,12,07,12,9.90
2007,11,12,07,13,8.00
2007,11,12,07,14,12.60
2007,11,12,07,15,7.50
2007,11,12,07,16,7.00
2007,11,12,07,17,7.30
2007,11,12,07,18,9.30
2007,11,12,07,19,7.90
2007,11,12,07,20,13.20
2007,11,12,07,21,8.70
2007,11,12,07,22,6.60
2007,11,12,07,23,2.20
2007,11,12,07,24,3.60
2007,11,12,07,25,4.40
2007,11,12,07,26,6.80
2007,11,12,07,27,10.90
2007,11,12,07,28,3.80
2007,11,12,07,29,4.70
2007,11,12,07,30,13.10
2007,11,12,07,31,10.50
2007,11,12,07,32,7.20
2007,11,12,07,33,8.30
2007,11,12,07,34,4.70
2007,11,12,07,35,7.10
2007,11,12,07,36,6.00
2007,11,12,07,37,9.00
2007,11,12,07,38,7.10
2007,11,12,07,39,5.60
2007,11,12,07,40,19.30
2007,11,12,07,41,22.50
2007,11,12,07,42,18.10
2007,11,12,07,43,9.70
2007,11,12,07,44,5.20
2007,11,12,07,45,2.30
2007,11,12,07,46,5.50
2007,11,12,07,47,5.80
2007,11,12,07,48,3.70
2007,11,12,07,49,1.80
2007,11,12,07,50,1.80
2007,11,12,07,51,2.90
2007,11,12,07,52,1.30
2007,11,12,07,53,7.40
2007,11,12,07,54,2.50
2007,11,12,07,55,0.40
2007,11,12,07,56,0.50
2007,11,12,07,57,3.60
2007,11,12,07,58,9.70
2007,11,12,07,59,3.10
2007,11,12,08,00,4.10
2007,11,12,08,01,2.60
2007,11,12,08,02,5.80
2007,11,12,08,03,9.30
2007,11,12,08,04,11.00
2007,11,12,08,05,11.90
2007,11,12,08,06,5.10
2007,11,12,08,07,10.90
2007,11,12,08,08,7.50
2007,11,12,08,09,4.20
2007,11,12,08,10,5.10
2007,11,12,08,11,8.80
2007,11,12,08,12,14.50
2007,11,12,08,13,21.90
2007,11,12,08,14,10.70
2007,11,12,08,15,13.90
2007,11,12,08,16,20.20
2007,11,12,08,17,17.30
2007,11,12,08,18,20.30
2007,11,12,08,19,19.80
2007,11,12,08,20,6.40
2007,11,12,08,21,13.80
2007,11,12,08,22,16.90
2007,11,12,08,23,19.50
2007,11,12,08,24,15.80
2007,11,12,08,25,17.60
2007,11,12,08,26,17.60
2007,11,12,08,27,13.50
2007,11,12,08,28,12.50
2007,11,12,08,29,8.40
2007,11,12,08,30,10.90
2007,11,12,08,31,8.40
2007,11,12,08,32,15.00
2007,11,12,08,33,11.10
2007,11,12,08,34,13.00
2007,11,12,08,35,11.50
2007,11,12,08,36,19.00
2007,11,12,08,37,20.00
2007,11,12,08,38,14.70
2007,11,12,08,39,11.20
2007,11,12,08,40,13.40
2007,11,12,08,41,20.30
2007,11,12,08,42,12.70
2007,11,12,08,43,13.80
2007,11,12,08,44,12.10
2007,11,12,08,45,14.50
2007,11,12,08,46,10.20
2007,11,12,08,47,10.10
2007,11,12,08,48,10.50
2007,11,12,08,49,6.30
2007,11,12,08,50,11.20
2007,11,12,08,51,16.90
2007,11,12,08,52,12.70
2007,11,12,08,53,14.60
2007,11,12,08,54,11.80
2007,11,12,08,55,18.80
2007,11,12,08,56,20.60
2007,11,12,08,57,17.40
2007,11,12,08,58,16.80
2007,11,12,08,59,18.80
2007,11,12,09,00,21.20
2007,11,12,09,01,28.60
2007,11,12,09,02,17.10
2007,11,12,09,03,15.40
2007,11,12,09,04,16.10
2007,11,12,09,05,16.80
2007,11,12,09,06,15.20
2007,11,12,09,07,27.40
2007,11,12,09,08,19.50
2007,11,12,09,09,17.00
2007,11,12,09,10,21.30
2007,11,12,09,11,20.50
2007,11,12,09,12,18.70
2007,11,12,09,13,21.80
2007,11,12,09,14,22.00
2007,11,12,09,15,18.50
2007,11,12,09,16,18.20
2007,11,12,09,17,9.80
2007,11,12,09,18,10.20
2007,11,12,09,19,15.60
2007,11,12,09,20,18.30
2007,11,12,09,21,20.60
2007,11,12,09,22,26.30
2007,11,12,09,23,25.30
2007,11,12,09,24,18.70
2007,11,12,09,25,13.20
2007,11,12,09,26,16.60
2007,11,12,09,27,10.10
2007,11,12,09,28,18.50
2007,11,12,09,29,26.30
2007,11,12,09,30,16.20
2007,11,12,09,31,22.60
2007,11,12,09,32,23.20
2007,11,12,09,33,25.60
2007,11,12,09,34,23.00
2007,11,12,09,35,19.60
2007,11,12,09,36,26.70
2007,11,12,09,37,24.90
2007,11,12,09,38,28.10
2007,11,12,09,39,26.10
2007,11,12,09,40,27.40
2007,11,12,09,41,29.90
2007,11,12,09,42,21.60
2007,11,12,09,43,22.50
2007,11,12,09,44,26.80
2007,11,12,09,45,21.70
2007,11,12,09,46,17.30
2007,11,12,09,47,17.50
2007,11,12,09,48,18.70
2007,11,12,09,49,16.50
2007,11,12,09,50,18.10
2007,11,12,09,51,15.40
2007,11,12,09,52,16.90
2007,11,12,09,53,16.30
2007,11,12,09,54,17.30
2007,11,12,09,55,12.50
2007,11,12,09,56,15.00
2007,11,12,09,57,17.00
2007,11,12,09,58,13.40
2007,11,12,09,59,12.60
2007,11,12,10,00,13.10
2007,11,12,10,01,14.10
2007,11,12,10,02,11.30
2007,11,12,10,03,17.00
2007,11,12,10,04,13.10
2007,11,12,10,05,15.90
2007,11,12,10,06,11.20
2007,11,12,10,07,12.30
2007,11,12,10,08,11.50
2007,11,12,10,09,19.00
2007,11,12,10,10,23.30
2007,11,12,10,11,22.00
2007,11,12,10,12,26.00
2007,11,12,10,13,26.10
2007,11,12,10,14,29.00
2007,11,12,10,15,34.50
2007,11,12,10,16,28.40
2007,11,12,10,17,27.90
2007,11,12,10,18,28.20
2007,11,12,10,19,31.60
2007,11,12,10,20,28.20
2007,11,12,10,21,21.00
2007,11,12,10,22,20.00
2007,11,12,10,23,22.70
2007,11,12,10,24,14.20
2007,11,12,10,25,14.00
2007,11,12,10,26,17.40
2007,11,12,10,27,13.90
2007,11,12,10,28,12.30
2007,11,12,10,29,17.10
2007,11,12,10,30,15.70
2007,11,12,10,31,28.40
2007,11,12,10,32,16.10
2007,11,12,10,33,16.10
2007,11,12,10,34,22.90
2007,11,12,10,35,20.40
2007,11,12,10,36,16.60
2007,11,12,10,37,16.40
2007,11,12,10,38,19.80
2007,11,12,10,39,25.30
2007,11,12,10,40,13.40
2007,11,12,10,41,26.60
2007,11,12,10,42,19.80
2007,11,12,10,43,17.00
2007,11,12,10,44,20.80
2007,11,12,10,45,26.90
2007,11,12,10,46,15.60
2007,11,12,10,47,16.90
2007,11,12,10,48,31.50
2007,11,12,10,49,17.80
2007,11,12,10,50,19.20
2007,11,12,10,51,12.60
2007,11,12,10,52,27.80
2007,11,12,10,53,25.60
2007,11,12,10,54,24.60
2007,11,12,10,55,18.10
2007,11,12,10,56,20.80
2007,11,12,10,57,20.10
2007,11,12,10,58,19.20
2007,11,12,10,59,14.80
2007,11,12,11,00,12.60
2007,11,12,11,01,21.80
2007,11,12,11,02,14.40
2007,11,12,11,03,14.50
2007,11,12,11,04,25.70
2007,11,12,11,05,25.00
2007,11,12,11,06,20.20
2007,11,12,11,07,25.90
2007,11,12,11,08,25.00
2007,11,12,11,09,17.30
2007,11,12,11,10,20.90
2007,11,12,11,11,19.30
2007,11,12,11,12,25.30
2007,11,12,11,13,23.00
2007,11,12,11,14,26.80
2007,11,12,11,15,28.20
2007,11,12,11,16,28.30
2007,11,12,11,17,19.20
2007,11,12,11,18,19.40
2007,11,12,11,19,24.30
2007,11,12,11,20,22.80
2007,11,12,11,21,20.00
2007,11,12,11,22,22.00
2007,11,12,11,23,21.60
2007,11,12,11,24,19.50
2007,11,12,11,25,19.50
2007,11,12,11,26,23.00
2007,11,12,11,27,14.50
2007,11,12,11,28,15.60
2007,11,12,11,29,15.80
2007,11,12,11,30,9.30
2007,11,12,11,31,17.80
2007,11,12,11,32,31.70
2007,11,12,11,33,28.10
2007,11,12,11,34,17.10
2007,11,12,11,35,22.10
2007,11,12,11,36,18.40
2007,11,12,11,37,24.90
2007,11,12,11,38,20.80
2007,11,12,11,39,25.30
2007,11,12,11,40,18.50
2007,11,12,11,41,28.10
2007,11,12,11,42,14.60
2007,11,12,11,43,16.20
2007,11,12,11,44,27.00
2007,11,12,11,45,23.40
2007,11,12,11,46,23.40
2007,11,12,11,47,12.80
2007,11,12,11,48,16.70
2007,11,12,11,49,18.30
2007,11,12,11,50,16.90
2007,11,12,11,51,14.60
2007,11,12,11,52,11.30
2007,11,12,11,53,6.00
2007,11,12,11,54,11.40
2007,11,12,11,55,8.60
2007,11,12,11,56,7.80
2007,11,12,11,57,14.30
2007,11,12,11,58,17.70
2007,11,12,11,59,23.90
2007,11,12,12,00,24.90
2007,11,12,12,01,22.90
2007,11,12,12,02,17.10
2007,11,12,12,03,18.90
2007,11,12,12,04,22.10
2007,11,12,12,05,11.10
2007,11,12,12,06,22.90
2007,11,12,12,07,23.60
2007,11,12,12,08,27.80
2007,11,12,12,09,22.30
2007,11,12,12,10,20.00
2007,11,12,12,11,15.40
2007,11,12,12,12,16.80
2007,11,12,12,13,21.60
2007,11,12,12,14,15.70
2007,11,12,12,15,20.00
2007,11,12,12,16,15.00
2007,11,12,12,17,11.80
2007,11,12,12,18,17.80
2007,11,12,12,19,20.10
2007,11,12,12,20,16.60
2007,11,12,12,21,14.20
2007,11,12,12,22,14.20
2007,11,12,12,23,15.30
2007,11,12,12,24,18.30
2007,11,12,12,25,15.90
2007,11,12,12,26,18.80
2007,11,12,12,27,20.60
2007,11,12,12,28,18.50
2007,11,12,12,29,23.50
2007,11,12,12,30,20.50
2007,11,12,12,31,24.80
2007,11,12,12,32,26.00
2007,11,12,12,33,23.90
2007,11,12,12,34,20.80
2007,11,12,12,35,21.00
2007,11,12,12,36,20.30
2007,11,12,12,37,18.80
2007,11,12,12,38,20.80
2007,11,12,12,39,23.40
2007,11,12,12,40,19.00
2007,11,12,12,41,29.40
2007,11,12,12,42,27.40
2007,11,12,12,43,27.80
2007,11,12,12,44,28.50
2007,11,12,12,45,26.50
2007,11,12,12,46,20.00
2007,11,12,12,47,20.40
2007,11,12,12,48,19.30
2007,11,12,12,49,16.70
2007,11,12,12,50,25.60
2007,11,12,12,51,19.50
2007,11,12,12,52,20.00
2007,11,12,12,53,17.90
2007,11,12,12,54,17.00
2007,11,12,12,55,13.80
2007,11,12,12,56,21.30
2007,11,12,12,57,27.80
2007,11,12,12,58,18.50
2007,11,12,12,59,12.60
2007,11,12,13,00,10.00
2007,11,12,13,01,23.30
2007,11,12,13,02,21.60
2007,11,12,13,03,21.60
2007,11,12,13,04,31.00
2007,11,12,13,05,23.20
2007,11,12,13,06,17.40
2007,11,12,13,07,17.70
2007,11,12,13,08,21.80
2007,11,12,13,09,31.80
2007,11,12,13,10,27.80
2007,11,12,13,11,22.70
2007,11,12,13,12,17.00
2007,11,12,13,13,19.50
2007,11,12,13,14,32.50
2007,11,12,13,15,20.30
2007,11,12,13,16,20.00
2007,11,12,13,17,29.20
2007,11,12,13,18,19.70
2007,11,12,13,19,26.30
2007,11,12,13,20,22.00
2007,11,12,13,21,20.00
2007,11,12,13,22,23.50
2007,11,12,13,23,22.20
2007,11,12,13,24,19.00
2007,11,12,13,25,11.00
2007,11,12,13,26,22.40
2007,11,12,13,27,15.80
2007,11,12,13,28,24.90
2007,11,12,13,29,23.80
2007,11,12,13,30,15.50
2007,11,12,13,31,20.30
2007,11,12,13,32,20.70
2007,11,12,13,33,21.50
2007,11,12,13,34,18.40
2007,11,12,13,35,21.30
2007,11,12,13,36,17.80
2007,11,12,13,37,19.80
2007,11,12,13,38,19.00
2007,11,12,13,39,21.20
2007,11,12,13,40,21.30
2007,11,12,13,41,17.20
2007,11,12,13,42,20.30
2007,11,12,13,43,20.20
2007,11,12,13,44,13.50
2007,11,12,13,45,20.80
2007,11,12,13,46,18.90
2007,11,12,13,47,13.40
2007,11,12,13,48,10.90
2007,11,12,13,49,12.20
2007,11,12,13,50,10.30
2007,11,12,13,51,11.10
2007,11,12,13,52,6.90
2007,11,12,13,53,2.60
2007,11,12,13,54,9.10
2007,11,12,13,55,12.50
2007,11,12,13,56,12.60
2007,11,12,13,57,7.30
2007,11,12,13,58,5.30
2007,11,12,13,59,9.40
2007,11,12,14,00,17.10
2007,11,12,14,01,12.70
2007,11,12,14,02,15.50
2007,11,12,14,03,13.20
2007,11,12,14,04,13.40
2007,11,12,14,05,15.90
2007,11,12,14,06,16.10
2007,11,12,14,07,22.70
2007,11,12,14,08,12.50
2007,11,12,14,09,17.40
2007,11,12,14,10,20.80
2007,11,12,14,11,15.70
2007,11,12,14,12,24.70
2007,11,12,14,13,18.30
2007,11,12,14,14,14.90
2007,11,12,14,15,22.00
2007,11,12,14,16,19.90
2007,11,12,14,17,13.90
2007,11,12,14,18,20.20
2007,11,12,14,19,15.80
2007,11,12,14,20,16.90
2007,11,12,14,21,16.90
2007,11,12,14,22,9.90
2007,11,12,14,23,13.60
2007,11,12,14,24,26.50
2007,11,12,14,25,25.20
2007,11,12,14,26,19.00
2007,11,12,14,27,22.80
2007,11,12,14,28,13.40
2007,11,12,14,29,25.30
2007,11,12,14,30,24.10
2007,11,12,14,31,16.90
2007,11,12,14,32,20.20
2007,11,12,14,33,23.40
2007,11,12,14,34,20.00
2007,11,12,14,35,15.70
2007,11,12,14,36,17.20
2007,11,12,14,37,18.40
2007,11,12,14,38,18.70
2007,11,12,14,39,21.20
2007,11,12,14,40,26.40
2007,11,12,14,41,15.10
2007,11,12,14,42,12.20
2007,11,12,14,43,17.30
2007,11,12,14,44,22.60
2007,11,12,14,45,22.20
2007,11,12,14,46,22.70
2007,11,12,14,47,23.20
2007,11,12,14,48,22.60
2007,11,12,14,49,22.40
2007,11,12,14,50,18.70
2007,11,12,14,51,16.60
2007,11,12,14,52,15.90
2007,11,12,14,53,20.90
2007,11,12,14,54,19.40
2007,11,12,14,55,19.30
2007,11,12,14,56,22.10
2007,11,12,14,57,17.90
2007,11,12,14,58,19.30
2007,11,12,14,59,17.40
2007,11,12,15,00,19.50
2007,11,12,15,01,20.80
2007,11,12,15,02,13.40
2007,11,12,15,03,14.10
2007,11,12,15,04,18.90
2007,11,12,15,05,20.00
2007,11,12,15,06,10.90
2007,11,12,15,07,16.10
2007,11,12,15,08,16.70
2007,11,12,15,09,15.60
2007,11,12,15,10,10.10
2007,11,12,15,11,15.20
2007,11,12,15,12,20.80
2007,11,12,15,13,19.30
2007,11,12,15,14,16.80
2007,11,12,15,15,14.30
2007,11,12,15,16,21.20
2007,11,12,15,17,18.00
2007,11,12,15,18,14.10
2007,11,12,15,19,15.50
2007,11,12,15,20,13.00
2007,11,12,15,21,6.60
2007,11,12,15,22,5.80
2007,11,12,15,23,9.20
2007,11,12,15,24,7.50
2007,11,12,15,25,12.80
2007,11,12,15,26,8.10
2007,11,12,15,27,9.30
2007,11,12,15,28,10.40
2007,11,12,15,29,7.40
2007,11,12,15,30,2.30
2007,11,12,15,31,10.30
2007,11,12,15,32,12.10
2007,11,12,15,33,19.30
2007,11,12,15,34,16.90
2007,11,12,15,35,19.60
2007,11,12,15,36,7.90
2007,11,12,15,37,10.80
2007,11,12,15,38,11.30
2007,11,12,15,39,11.60
2007,11,12,15,40,12.90
2007,11,12,15,41,13.50
2007,11,12,15,42,13.70
2007,11,12,15,43,12.30
2007,11,12,15,44,11.10
2007,11,12,15,45,11.50
2007,11,12,15,46,9.10
2007,11,12,15,47,19.90
2007,11,12,15,48,20.20
2007,11,12,15,49,19.60
2007,11,12,15,50,16.50
2007,11,12,15,51,13.10
2007,11,12,15,52,13.70
2007,11,12,15,53,13.60
2007,11,12,15,54,14.20
2007,11,12,15,55,15.90
2007,11,12,15,56,19.40
2007,11,12,15,57,19.20
2007,11,12,15,58,9.00
2007,11,12,15,59,15.20
2007,11,12,16,00,10.50
2007,11,12,16,01,13.00
2007,11,12,16,02,6.10
2007,11,12,16,03,10.20
2007,11,12,16,04,9.80
2007,11,12,16,05,14.50
2007,11,12,16,06,11.40
2007,11,12,16,07,17.70
2007,11,12,16,08,19.20
2007,11,12,16,09,8.40
2007,11,12,16,10,20.00
2007,11,12,16,11,15.50
2007,11,12,16,12,11.50
2007,11,12,16,13,12.50
2007,11,12,16,14,17.70
2007,11,12,16,15,20.80
2007,11,12,16,16,24.80
2007,11,12,16,17,23.70
2007,11,12,16,18,21.40
2007,11,12,16,19,23.60
2007,11,12,16,20,17.20
2007,11,12,16,21,29.50
2007,11,12,16,22,17.90
2007,11,12,16,23,19.30
2007,11,12,16,24,17.80
2007,11,12,16,25,19.50
2007,11,12,16,26,16.90
2007,11,12,16,27,28.50
2007,11,12,16,28,20.20
2007,11,12,16,29,19.90
2007,11,12,16,30,14.40
2007,11,12,16,31,18.10
2007,11,12,16,32,20.20
2007,11,12,16,33,17.90
2007,11,12,16,34,14.80
2007,11,12,16,35,19.60
2007,11,12,16,36,18.10
2007,11,12,16,37,16.30
2007,11,12,16,38,18.00
2007,11,12,16,39,19.10
2007,11,12,16,40,11.70
2007,11,12,16,41,12.60
2007,11,12,16,42,11.00
2007,11,12,16,43,17.20
2007,11,12,16,44,13.00
2007,11,12,16,45,13.90
2007,11,12,16,46,13.80
2007,11,12,16,47,9.10
2007,11,12,16,48,14.40
2007,11,12,16,49,7.90
2007,11,12,16,50,15.10
2007,11,12,16,51,20.90
2007,11,12,16,52,22.30
2007,11,12,16,53,24.50
2007,11,12,16,54,22.60
2007,11,12,16,55,10.00
2007,11,12,16,56,4.30
2007,11,12,16,57,17.20
2007,11,12,16,58,15.60
2007,11,12,16,59,20.40
2007,11,12,17,00,18.50
2007,11,12,17,01,9.80
2007,11,12,17,02,6.70
2007,11,12,17,03,7.40
2007,11,12,17,04,9.40
2007,11,12,17,05,6.90
2007,11,12,17,06,6.90
2007,11,12,17,07,5.20
2007,11,12,17,08,5.90
2007,11,12,17,09,9.30
2007,11,12,17,10,2.60
2007,11,12,17,11,1.60
2007,11,12,17,12,1.60
2007,11,12,17,13,4.40
2007,11,12,17,14,7.90
2007,11,12,17,15,7.60
2007,11,12,17,16,5.80
2007,11,12,17,17,7.20
2007,11,12,17,18,5.80
2007,11,12,17,19,6.40
2007,11,12,17,20,4.30
2007,11,12,17,21,5.10
2007,11,12,17,22,5.30
2007,11,12,17,23,6.90
2007,11,12,17,24,5.30
2007,11,12,17,25,5.00
2007,11,12,17,26,6.40
2007,11,12,17,27,8.50
2007,11,12,17,28,6.90
2007,11,12,17,29,7.40
2007,11,12,17,30,4.80
2007,11,12,17,31,5.30
2007,11,12,17,32,5.30
2007,11,12,17,33,5.60
2007,11,12,17,34,7.20